Retour au catalogue

FREGAT DEB

LostUNKNOWN
NORAD 46410·DEBRIS·🇷🇺 Russia

Lancé Jul 18, 2011 depuis Baikonur Cosmodrome

Loading…

Prochains Passages (prochaines 24 heures)

TLE

PériméSource: Space-Track

Époque: Jan 3, 2023, 21:14 UTC

1 46410U 11037LR  23003.88516144 -.00006145  00000-0 -58903-1 0  9996
2 46410  51.6725 222.4851 2030993 103.2838 280.1085  9.66798814 32577

Suivez FREGAT DEB en temps réel avec AllMySat

Download on the App Store